Regional Weather Roundup
Issued by NWS Jackson, KY

Home | Current Version | Previous Version | Graphics & Text | Print | Product List | Glossary On
Versions: 1 2 3 4 5 6 7 8 9 10 11 12 13 14 15 16 17 18 19 20 21 22 23 24 25 26 27 28 29 30 31 32 33 34 35 36 37 38 39 40 41 42 43 44 45 46 47 48 49 50
000
ASUS43 KJKL 010419
RWRJKL

EAST KENTUCKY HOURLY WEATHER ROUNDUP
NATIONAL WEATHER SERVICE JACKSON KY
1100 PM EST SAT JAN 31 2015

NOTE: "FAIR" INDICATES FEW OR NO CLOUDS BELOW 12,000 FEET WITH
NO SIGNIFICANT WEATHER AND/OR OBSTRUCTIONS TO VISIBILITY.

* THESE REPORTS ARE NOT UNDER NWS QUALITY CONTROL AND MAY NOT
  REPORT WEATHER SUCH AS PRECIPITATION AND FOG.

KYZ079-080-083-085-087-088-110-112-115-119-120-010500
...EASTERN KENTUCKY...

CITY           SKY/WX    TMP DP  RH WIND       PRES   REMARKS
JACKSON        CLOUDY    38   9  30 CALM      30.23F
LONDON         CLOUDY    38  17  42 E6        30.22F WCI  33
SOMERSET*      CLOUDY    37  19  48 CALM      30.26R
MONTICELLO*    CLOUDY    38  24  57 CALM      30.28R
MIDDLESBORO*   CLOUDY    36  26  69 CALM      30.27S
HARLAN APT*    CLOUDY    34  23  64 E8        30.25S WCI  27
HAZARD APT*    MOCLDY    36  14  41 CALM      30.25S
BLACK MTN*       N/A     36  -4  18 SW7         N/A  WCI  30
PIKEVILLE APT* CLEAR     36  12  38 SE5       30.23F WCI  32
BIG SANDY*     CLOUDY    35  17  48 CALM      30.25F
MOREHEAD APT*  CLOUDY    36  18  48 CALM      30.25F
ASHLAND*       MOCLDY    34  27  75 CALM      30.25F
$$

KYZ035-036-041-042-044-050-067-078-099-010500
...CENTRAL KENTUCKY...

CITY           SKY/WX    TMP DP  RH WIND       PRES   REMARKS
MT STERLING*   CLOUDY    34  25  69 CALM      30.26S
FLEMING/MASON* CLOUDY    35  22  60 S3        30.26F
DANVILLE*      CLOUDY    34  27  75 E3        30.24F
RICHMOND*      CLOUDY    34  21  60 E5        30.23F WCI  30
LEXINGTON      CLOUDY    35  22  58 E5        30.24F WCI  31
FRANKFORT      CLOUDY    35  20  54 CALM      30.23F
$$

KYZ091>093-OHZ055-061-077-WVZ005-015-034-035-042-010500
...SOUTHERN OHIO/WEST VIRGINIA...

CITY           SKY/WX    TMP DP  RH WIND       PRES   REMARKS
COVINGTON      LGT RAIN  34  26  72 CALM      30.22F
COLUMBUS       CLOUDY    34  21  60 SE6       30.21F WCI  29
DAYTON         FRZ RAIN  33  30  88 SW10      30.21F FOG     WCI  25
WILMINGTON     CLOUDY    33  24  69 SW10      30.22S WCI  25
HUNTINGTON     CLOUDY    31  19  61 CALM      30.26F
CHARLESTON     CLOUDY    31  21  66 CALM      30.26F
PINEVILLE*     CLOUDY    30  26  86 MISG      30.30S
BECKLEY        MOCLDY    30  11  45 SW5       30.21F WCI  25
BLUEFIELD      CLOUDY    33  11  39 W8        30.21S WCI  26
$$

VAZ002-007-008-TNZ017-027-036-066-071-010500
...SOUTHWEST VIRGINIA/EAST TENNESSEE...

CITY           SKY/WX    TMP DP  RH WIND       PRES   REMARKS
WISE*          CLOUDY    32  12  43 S3        30.22F
JONESVILLE*    CLOUDY    34  23  64 CALM      30.29S
ABINGDON*      CLOUDY    34  17  50 CALM      30.25S
BRISTOL        CLOUDY    33  19  56 CALM      30.26F
KNOXVILLE      CLOUDY    38  22  52 CALM      30.26F
OAK RIDGE      CLOUDY    40  22  48 CALM      30.27F
CROSSVILLE     CLOUDY    39  10  30 N3        30.23F
NASHVILLE      CLOUDY    40  22  48 S5        30.21F
$$

...KEY TO REMARKS...
VSB - VISIBILITY IN MILES
WCI - WIND CHILL INDEX
HX  - HEAT INDEX

$$



USA.gov is the U.S. government's official web portal to all federal, state and local government web resources and services.